This is the latest recevied weather packets stored in our database for station/object WX5HOT. If no packets are shown the sender has not sent any weather packets the latest 10 day(s).
| Time | Temp. | Humidity | Pressure | Rain* | Wind** | Luminosity | Snow |
|---|---|---|---|---|---|---|---|
| 1777917849 | 20.56° C | 51% | 1063.3 hPa | 0 mm | - | 951 W/m² | - |
| 1777917547 | 20.56° C | 51% | 1063.3 hPa | 0 mm | - | 509 W/m² | - |
| 1777917243 | 20° C | 51% | 1063.2 hPa | 0 mm | - | 887 W/m² | - |
| 1777916941 | 20° C | 51% | 1063.3 hPa | 0 mm | - | 948 W/m² | - |
| 1777916638 | 20° C | 51% | 1063.3 hPa | 0 mm | - | 943 W/m² | - |
| 1777916335 | 20° C | 51% | 1063.2 hPa | 0 mm | - | 906 W/m² | - |
| 1777916032 | 20° C | 52% | 1063.4 hPa | 0 mm | - | 947 W/m² | - |
| 1777915729 | 20° C | 52% | 1063.2 hPa | 0 mm | - | 942 W/m² | - |
| 1777915426 | 20° C | 54% | 1063.4 hPa | 0 mm | - | 873 W/m² | - |
| 1777915121 | 19.44° C | 53% | 1063.7 hPa | 0 mm | - | 138 W/m² | - |
| 1777914819 | 19.44° C | 52% | 1063.7 hPa | 0 mm | - | 924 W/m² | - |
| 1777914516 | 19.44° C | 52% | 1063.6 hPa | 0 mm | - | 928 W/m² | - |
| 1777914212 | 19.44° C | 53% | 1064 hPa | 0 mm | - | 917 W/m² | - |
| 1777913909 | 19.44° C | 55% | 1064 hPa | 0 mm | - | 903 W/m² | - |
| 1777913605 | 19.44° C | 55% | 1064.1 hPa | 0 mm | - | 930 W/m² | - |
| 1777913302 | 19.44° C | 55% | 1064.1 hPa | 0 mm | - | 854 W/m² | - |
| 1777912999 | 18.89° C | 55% | 1064.2 hPa | 0 mm | - | 904 W/m² | - |
| 1777912695 | 18.89° C | 55% | 1064 hPa | 0 mm | - | 870 W/m² | - |
| 1777912391 | 18.89° C | 58% | 1064.2 hPa | 0 mm | - | 883 W/m² | - |
| 1777912087 | 18.89° C | 57% | 1064.2 hPa | 0 mm | - | 104 W/m² | - |
| 1777911783 | 18.89° C | 57% | 1064.3 hPa | 0 mm | - | 848 W/m² | - |
| 1777911480 | 18.89° C | 59% | 1064.3 hPa | 0 mm | - | 768 W/m² | - |
| 1777911177 | 18.89° C | 58% | 1064.2 hPa | 0 mm | - | 588 W/m² | - |
| 1777910875 | 18.33° C | 59% | 1064.3 hPa | 0 mm | - | 427 W/m² | - |
| 1777910571 | 18.33° C | 59% | 1064.5 hPa | 0 mm | - | 617 W/m² | - |
* Rain latest hour (hover to see other rain measurements)
** Current wind speed in m/s (hover to see current wind gust speed)